THY3LU LTFM-LIBD

Flight info

Callsign THY3LU
Flight time N/A
Altitude 36000
Route BARPE1D/35L BARPE UM603 GOLDO DCT PINDO DCT PAPIZ P92 KAPPO L612 DOLON
Aircraft A321/M-SDE3FGHIRWY/LB1

Departure

Time 2026-05-03 20:55
Airport İstanbul Airport (LTFM)

Arrival

Time N/A
Airport Bari Karol Wojtyła International Airport (LIBD)
Time Latitude Longitude Altitude Speed Heading
2026-05-03 20:28 41.26647 28.73751 334 ft 0 kts 272°
2026-05-03 20:42 41.26647 28.73757 332 ft 3 kts 272°
2026-05-03 20:42 41.26646 28.73793 334 ft 4 kts 276°
2026-05-03 20:42 41.26642 28.73828 334 ft 4 kts 284°
2026-05-03 20:42 41.26633 28.73861 333 ft 4 kts 305°
2026-05-03 20:43 41.26617 28.73879 334 ft 2 kts 358°
2026-05-03 20:43 41.26616 28.73879 334 ft 0 kts 359°
2026-05-03 20:46 41.26617 28.73879 334 ft 0 kts 359°
2026-05-03 20:46 41.26628 28.73879 330 ft 3 kts 359°
2026-05-03 20:46 41.26656 28.73878 334 ft 5 kts 358°
2026-05-03 20:46 41.26701 28.73876 331 ft 8 kts 358°
2026-05-03 20:47 41.26761 28.73875 332 ft 10 kts 359°
2026-05-03 20:47 41.26836 28.73873 334 ft 12 kts 358°
2026-05-03 20:47 41.26911 28.73871 334 ft 9 kts 359°
2026-05-03 20:47 41.26968 28.73871 334 ft 7 kts 360°
2026-05-03 20:48 41.27007 28.73871 334 ft 4 kts 360°
2026-05-03 20:48 41.27027 28.73862 334 ft 2 kts 330°
2026-05-03 20:48 41.27039 28.73844 334 ft 3 kts 308°
2026-05-03 20:48 41.27049 28.73812 334 ft 4 kts 282°
2026-05-03 20:49 41.27050 28.73765 333 ft 6 kts 270°
2026-05-03 20:49 41.27050 28.73701 331 ft 8 kts 269°
2026-05-03 20:49 41.27049 28.73635 334 ft 7 kts 269°
2026-05-03 20:49 41.27048 28.73558 334 ft 9 kts 269°
2026-05-03 20:50 41.27047 28.73464 334 ft 11 kts 269°
2026-05-03 20:50 41.27045 28.73355 332 ft 13 kts 269°
2026-05-03 20:50 41.27044 28.73232 334 ft 14 kts 269°
2026-05-03 20:50 41.27042 28.73129 334 ft 10 kts 269°
2026-05-03 20:51 41.27040 28.73041 334 ft 9 kts 263°
2026-05-03 20:51 41.26998 28.72987 333 ft 9 kts 191°
2026-05-03 20:51 41.26935 28.72987 332 ft 8 kts 179°
2026-05-03 20:51 41.26882 28.72988 334 ft 8 kts 179°
2026-05-03 20:52 41.26826 28.72989 334 ft 8 kts 179°
2026-05-03 20:52 41.26764 28.72990 334 ft 9 kts 179°
2026-05-03 20:52 41.26712 28.72953 334 ft 9 kts 257°
2026-05-03 20:52 41.26716 28.72862 334 ft 10 kts 272°
2026-05-03 20:53 41.26715 28.72763 333 ft 11 kts 269°
2026-05-03 20:53 41.26713 28.72653 334 ft 12 kts 268°
2026-05-03 20:53 41.26712 28.72554 332 ft 9 kts 271°
2026-05-03 20:53 41.26751 28.72515 332 ft 8 kts 351°
2026-05-03 20:54 41.26811 28.72513 334 ft 11 kts 359°
2026-05-03 20:54 41.27836 28.72489 335 ft 136 kts 359°
2026-05-03 20:54 41.28943 28.72464 365 ft 178 kts 360°
2026-05-03 20:55 41.30190 28.72440 942 ft 179 kts
2026-05-03 20:55 41.31431 28.72438 1660 ft 176 kts
2026-05-03 20:55 41.32676 28.72455 2068 ft 186 kts
2026-05-03 20:55 41.34056 28.72486 2219 ft 210 kts
2026-05-03 20:56 41.35610 28.72497 2362 ft 238 kts 356°
2026-05-03 20:56 41.37198 28.71768 2922 ft 250 kts 326°
2026-05-03 20:56 41.38306 28.69960 3578 ft 261 kts 294°
2026-05-03 20:56 41.38482 28.67533 4248 ft 273 kts 262°
2026-05-03 20:57 41.38040 28.65055 5003 ft 275 kts 257°
2026-05-03 20:57 41.37549 28.62610 5725 ft 278 kts 257°
2026-05-03 20:57 41.37036 28.60113 6439 ft 281 kts 257°
2026-05-03 20:57 41.36521 28.57587 7152 ft 284 kts 257°
2026-05-03 20:58 41.36006 28.55029 7854 ft 288 kts 257°
2026-05-03 20:58 41.35491 28.52438 8540 ft 291 kts 257°
2026-05-03 20:58 41.34975 28.49817 9218 ft 294 kts 257°
2026-05-03 20:58 41.34454 28.47166 9875 ft 298 kts 257°
2026-05-03 20:59 41.33924 28.44467 10363 ft 310 kts 257°
2026-05-03 20:59 41.33363 28.41599 10503 ft 332 kts 257°
2026-05-03 20:59 41.32761 28.38535 10631 ft 353 kts 257°
2026-05-03 20:59 41.32120 28.35289 10768 ft 372 kts 256°
2026-05-03 21:00 41.31451 28.31915 11181 ft 381 kts 256°
2026-05-03 21:00 41.31000 28.29652 11564 ft 384 kts 256°
2026-05-03 21:00 41.30085 28.25080 12356 ft 388 kts 256°
2026-05-03 21:00 41.29386 28.21598 12945 ft 391 kts 256°
2026-05-03 21:01 41.28683 28.18092 13543 ft 394 kts 256°
2026-05-03 21:01 41.27976 28.14555 14136 ft 397 kts 256°
2026-05-03 21:01 41.27265 28.10996 14728 ft 400 kts 256°
2026-05-03 21:01 41.26548 28.07410 15298 ft 403 kts 256°
2026-05-03 21:02 41.25824 28.03798 15865 ft 406 kts 255°
2026-05-03 21:02 41.25092 28.00159 16428 ft 409 kts 255°
2026-05-03 21:02 41.24354 27.96500 16963 ft 412 kts 255°
2026-05-03 21:02 41.23607 27.92817 17520 ft 414 kts 255°
2026-05-03 21:03 41.22864 27.89163 18035 ft 417 kts 255°
2026-05-03 21:03 41.22107 27.85446 18531 ft 419 kts 255°
2026-05-03 21:03 41.21339 27.81687 19012 ft 422 kts 255°
2026-05-03 21:03 41.20570 27.77918 19473 ft 425 kts 255°
2026-05-03 21:04 41.19795 27.74123 19929 ft 427 kts 255°
2026-05-03 21:04 41.19017 27.70307 20369 ft 430 kts 255°